Wetbulb
47.56 46.48 45.71 45.68 48.08 47.23 45.09 46.22 47.43 48.59 49.49 49.79 50.02 50.35 48.68 50.26 50.66 50.90 50.73 51.39 51.63 52.37 53.13 52.22 51.86 51.68 49.81 49.76 48.24 48.42 46.13 46.33 45.23 42.90 44.02 44.30 44.81 47.34 48.62 49.97 50.56 49.82 49.81
44.83 44.72 44.43 45.25 47.27 47.03 46.81 47.55 49.46 48.77 50.02 50.30 49.50 48.63 49.12 49.86 50.17 49.43 49.29 51.02 51.61 50.77 50.32 48.62 47.79 49.68 46.05 47.20 45.07 43.45 42.92 43.09 44.73 38.41 40.81 42.38 43.29 47.04 47.80 48.17 49.23 51.44 50.99
47.05 45.14 46.64 46.15 45.82 44.62 46.59 46.98 49.20 48.61 46.77 48.30 47.61 47.49 48.01 49.29 47.28 47.20 47.89 49.84 49.23 48.45 47.31 46.16 45.44 44.34 42.94 43.20 44.31 42.98 43.37 46.69 46.52 43.88 43.27 43.56 45.67 43.52 43.67 43.99 44.99 46.02 49.93
45.55 45.22 43.09 45.57 44.66 45.00 44.32 47.46 47.94 48.03 46.45 47.84 48.43 47.87 48.03 47.23 47.12 48.23 48.98 48.02 47.82 47.01 46.36 45.23 44.88 44.20 42.87 42.12 42.17 41.51 42.62 41.96 43.26 41.10 43.33 43.26 45.40 43.28 42.28 41.08 41.81 44.05 45.36
44.72 45.07 45.38 45.40 45.85 45.25 46.24 46.86 47.31 46.72 46.77 46.73 48.43 47.73 45.42 45.66 45.30 44.28 46.18 46.02 45.19 45.13 45.69 46.01 45.31 48.78 49.00 46.98 43.85 41.91 41.38 40.56 40.08 39.92 39.92 39.54 39.72 39.84 38.42 39.80 39.74 41.36 43.42
44.55 45.14 46.36 46.34 46.40 46.17 46.55 45.62 45.68 46.38 45.81 46.43 45.62 45.78 44.19 44.60 44.81 45.59 45.55 44.33 45.81 44.58 44.04 43.34 44.54 47.23 45.28 46.57 47.28 47.58 47.81 41.73 39.88 41.16 38.72 39.44 39.21 39.64 39.44 39.41 38.53 38.67 39.13
44.67 45.66 45.61 46.16 44.82 44.72 45.10 45.49 45.56 45.31 44.94 44.61 44.86 44.33 42.83 39.74 43.51 43.20 45.07 44.01 46.91 43.95 42.08 42.08 43.46 45.37 43.92 41.88 43.93 46.69 46.62 49.12 49.33 44.94 41.66 40.56 39.44 40.53 39.98 39.04 39.18 38.38 39.75
44.59 44.25 44.82 45.08 44.39 44.54 44.62 45.21 45.59 45.31 45.09 44.44 43.61 43.22 39.74 41.06 43.11 42.56 44.81 43.54 46.55 42.98 42.53 42.37 40.28 40.63 41.07 41.10 40.70 43.00 44.53 45.01 44.19 45.72 44.27 43.19 42.33 41.87 41.17 41.41 42.53 40.64 41.31
43.06 43.89 44.71 45.34 45.01 44.85 44.96 45.13 45.63 45.54 44.70 44.07 42.86 42.21 40.76 40.51 42.31 42.12 41.56 42.21 44.14 42.31 42.68 41.99 41.11 40.31 42.29 42.15 39.97 40.57 41.07 41.76 47.78 47.56 46.88 45.34 43.97 43.87 44.69 40.85 39.33 38.14 37.01
43.49 44.49 45.38 45.52 45.37 45.15 45.64 44.79 46.00 45.35 45.81 45.35 45.12 42.22 44.63 40.91 41.93 41.36 41.16 40.22 39.30 40.76 41.01 42.08 44.04 41.77 41.21 40.66 38.67 37.71 38.60 38.61 40.25 40.81 41.26 42.30 43.24 44.36 46.74 43.26 43.21 41.27 41.03
45.07 46.48 46.74 47.75 46.01 44.19 41.55 41.43 39.79 41.55 43.93 44.39 44.83 43.14 41.07 40.04 38.54 41.12 41.38 39.81 38.26 40.04 42.04 41.58 42.78 43.18 41.90 40.75 40.45 37.71 38.92 39.23 40.45 38.90 39.58 39.90 41.10 41.90 42.23 44.76 44.70 41.47 39.00
45.36 45.69 44.79 42.64 43.91 42.67 38.21 38.09 37.42 37.50 38.12 39.82 38.02 38.74 39.08 37.94 41.51 40.82 40.76 40.43 42.20 38.28 40.64 41.51 40.42 41.31 40.67 40.72 40.46 40.24 40.52 40.92 38.73 37.95 37.87 37.54 38.38 39.20 41.29 41.79 44.06 43.27 42.51
44.59 43.22 41.65 41.72 41.94 42.58 37.75 36.49 34.86 34.87 35.34 36.15 38.63 35.84 35.80 38.05 36.87 40.07 40.03 39.74 41.09 40.10 40.22 41.54 40.53 40.68 41.02 40.74 41.74 41.37 41.40 38.02 38.14 37.44 36.71 37.14 38.76 39.49 39.90 40.47 41.76 42.73 42.49
44.25 43.51 42.39 40.18 39.32 39.33 40.22 38.77 34.25 32.87 33.28 34.21 35.37 36.35 34.36 34.94 35.29 35.21 36.78 36.73 39.87 40.14 40.92 38.92 42.00 42.49 42.10 41.50 40.83 40.36 39.27 39.42 38.59 37.52 37.79 39.10 39.66 37.99 37.21 38.49 37.47 37.46 40.92
42.40 42.23 43.78 42.09 39.73 38.78 39.39 38.21 36.65 32.50 33.11 32.73 32.49 34.73 34.20 33.52 35.42 36.80 36.78 37.21 37.54 38.00 37.42 39.42 39.02 38.33 37.69 36.74 37.54 38.26 38.12 39.47 38.37 38.02 38.01 38.02 40.51 40.28 40.29 39.62 40.14 39.96 39.21
41.95 42.97 42.66 41.03 42.76 41.04 39.06 35.81 37.12 36.95 36.58 36.30 36.26 34.23 35.14 37.53 38.65 38.45 37.95 37.51 37.36 37.45 38.72 36.60 35.87 35.95 36.17 35.95 36.54 36.35 36.96 39.03 38.39 38.69 39.53 40.01 39.74 39.33 39.06 39.82 40.22 39.66 39.10
39.92 41.18 40.72 42.45 40.60 40.52 40.69 40.44 37.76 37.41 37.58 37.20 36.65 36.63 36.32 36.18 37.07 37.74 37.47 36.71 37.90 39.56 37.28 36.30 35.47 36.07 35.99 36.27 37.52 35.91 35.19 35.66 38.28 37.56 39.99 39.88 39.13 38.74 38.48 38.40 38.84 39.07 38.39
41.20 43.47 39.41 41.91 41.13 40.76 40.58 40.63 42.41 38.84 36.57 36.70 38.59 36.48 36.89 37.34 37.55 37.47 37.02 38.08 39.73 39.31 37.34 36.41 35.80 36.79 37.88 36.89 37.45 36.50 35.52 36.46 36.66 38.37 39.26 39.46 38.87 38.16 37.69 37.57 38.15 38.21 38.22
41.14 40.22 40.35 40.48 41.16 41.46 40.83 40.67 40.09 39.97 39.45 38.45 38.10 38.85 39.95 39.71 39.79 38.24 37.46 38.53 37.96 37.56 37.57 36.94 36.43 36.52 37.54 37.51 37.22 36.99 36.07 36.01 35.72 37.72 38.09 38.89 38.38 38.03 37.43 37.85 38.03 37.08 36.77
43.76 41.36 40.37 39.74 40.91 40.49 41.07 40.91 40.63 40.25 39.50 38.73 38.04 38.07 39.78 39.59 39.16 39.92 39.98 39.56 38.36 38.02 37.96 36.90 36.68 36.53 36.84 36.77 36.55 36.09 36.12 35.91 35.88 36.60 37.77 38.92 38.03 38.23 37.70 37.52 38.11 38.16 37.77
45.61 43.98 41.71 41.04 41.38 40.61 40.61 40.71 40.92 40.09 39.83 39.55 39.09 39.35 34.12 37.70 38.75 38.78 38.82 39.06 38.71 38.17 38.09 36.84 35.70 35.86 36.20 36.38 35.77 35.42 35.40 34.93 35.43 37.19 38.17 38.18 37.49 37.13 37.87 38.10 38.75 38.26 38.04
42.97 43.14 42.41 41.96 41.81 41.30 40.88 41.67 41.11 40.49 40.51 40.04 39.91 40.10 34.78 38.51 39.57 39.58 39.27 39.71 39.39 39.45 38.92 37.62 36.52 36.08 35.88 35.54 35.65 34.83 33.67 33.21 34.69 36.58 38.22 38.38 38.24 37.67 37.54 38.14 37.96 37.88 37.70
42.36 43.69 43.37 42.45 41.89 41.03 42.06 41.55 41.06 41.43 41.34 41.57 41.24 41.11 40.39 40.26 39.61 39.64 40.28 40.07 39.38 39.71 39.23 38.73 37.56 36.88 37.07 36.77 37.06 35.24 32.76 31.68 33.28 35.65 37.51 37.69 38.41 38.28 38.37 37.86 37.83 37.18 37.28
42.88 43.72 43.32 42.82 42.32 41.60 41.77 41.51 42.11 39.66 41.03 42.15 41.94 41.62 42.66 41.76 42.34 40.75 39.60 40.12 39.64 39.53 39.88 39.26 38.24 37.80 37.20 37.15 36.79 35.38 33.68 32.01 33.30 36.53 36.87 39.38 38.64 38.51 38.95 38.28 38.21 38.26 38.39
42.46 43.35 43.31 42.76 43.59 42.33 42.81 42.73 42.41 42.54 42.28 42.15 42.46 43.47 42.87 42.06 41.04 43.14 40.28 39.93 39.99 39.35 40.12 39.19 37.45 37.58 37.84 36.64 35.47 34.33 32.00 31.55 33.20 32.76 38.31 40.08 39.33 39.21 39.49 39.00 38.79 38.87 39.23
44.23 44.69 43.66 43.34 42.81 42.42 42.09 42.80 43.14 43.23 43.07 43.54 43.80 42.93 42.99 42.32 44.07 43.67 42.65 42.40 40.62 39.63 39.98 38.74 37.08 36.71 36.99 36.40 34.66 32.29 31.92 31.92 33.24 32.85 39.49 40.23 39.36 39.59 39.67 40.25 39.93 39.36 39.38
MSLP
1023.97 1023.75 1023.39 1022.99 1022.54 1022.16 1021.82 1021.34 1020.81 1020.32 1019.81 1019.43 1019.05 1018.72 1018.31 1017.82 1017.45 1017.06 1016.57 1016.09 1015.67 1015.36 1015.20 1015.05 1014.89 1014.59 1014.55 1014.29 1014.25 1014.18 1014.32 1014.26 1014.40 1014.26 1014.07 1013.68 1013.27 1012.80 1012.17 1011.80 1011.42 1011.23 1010.93
1024.17 1023.89 1023.55 1023.20 1022.77 1022.44 1022.01 1021.53 1020.84 1020.45 1019.88 1019.68 1019.47 1019.09 1018.73 1018.25 1017.79 1017.49 1016.97 1016.45 1016.23 1016.09 1015.95 1015.67 1015.58 1015.20 1015.08 1014.86 1014.77 1014.71 1014.56 1014.48 1014.52 1014.63 1014.28 1013.92 1013.46 1012.79 1012.33 1011.93 1011.44 1010.88 1010.56
1024.43 1024.18 1023.81 1023.42 1023.06 1022.71 1022.34 1021.80 1021.27 1021.03 1020.55 1020.02 1019.60 1019.17 1018.84 1018.48 1018.19 1017.73 1017.25 1016.96 1016.81 1016.67 1016.49 1016.28 1016.12 1015.83 1015.72 1015.47 1015.07 1015.05 1014.87 1014.50 1014.47 1014.47 1014.32 1013.78 1013.15 1012.70 1012.34 1011.88 1011.49 1010.94 1010.32
1024.72 1024.40 1024.15 1023.71 1023.44 1023.09 1022.62 1022.16 1021.73 1021.28 1020.80 1020.29 1019.88 1019.57 1019.33 1019.04 1018.59 1018.07 1017.66 1017.41 1017.15 1016.97 1016.72 1016.50 1016.30 1016.12 1015.99 1015.75 1015.48 1015.26 1015.05 1014.86 1014.69 1014.55 1014.28 1013.91 1013.51 1012.81 1012.48 1012.27 1011.76 1011.03 1010.41
1024.88 1024.56 1024.27 1023.96 1023.61 1023.14 1022.68 1022.27 1021.84 1021.37 1020.96 1020.55 1020.18 1019.97 1019.66 1019.31 1019.05 1018.70 1018.36 1018.03 1017.65 1017.34 1016.99 1016.63 1016.36 1016.09 1015.92 1015.62 1015.51 1015.37 1015.23 1014.95 1014.78 1014.61 1014.45 1014.21 1013.80 1013.41 1013.01 1012.48 1011.99 1011.35 1010.53
1025.03 1024.77 1024.52 1024.16 1023.72 1023.23 1022.80 1022.45 1022.03 1021.59 1021.22 1020.89 1020.56 1020.30 1020.16 1019.82 1019.32 1018.80 1018.47 1018.22 1017.93 1017.73 1017.53 1016.97 1016.57 1016.34 1016.05 1015.68 1015.23 1014.95 1014.60 1014.44 1014.27 1014.30 1014.22 1014.19 1013.78 1013.35 1012.84 1012.55 1012.22 1011.84 1011.28
1025.21 1024.90 1024.68 1024.34 1023.97 1023.32 1022.96 1022.65 1022.26 1021.86 1021.52 1021.21 1020.88 1020.64 1020.41 1020.06 1019.46 1018.80 1018.36 1018.07 1018.04 1018.03 1017.64 1017.29 1016.79 1016.44 1016.12 1015.71 1015.11 1014.61 1014.36 1013.90 1013.54 1013.81 1013.93 1013.75 1013.49 1013.01 1012.78 1012.45 1012.11 1011.97 1011.46
1025.31 1025.06 1024.68 1024.40 1024.02 1023.50 1023.06 1022.67 1022.26 1021.88 1021.63 1021.41 1021.24 1020.86 1020.58 1020.19 1019.53 1019.01 1018.29 1018.03 1018.15 1018.10 1017.74 1017.38 1016.98 1016.56 1016.16 1015.98 1015.56 1015.11 1014.61 1014.04 1013.49 1013.34 1013.36 1013.17 1012.98 1012.60 1012.39 1012.22 1011.93 1011.64 1011.04
1025.43 1025.11 1024.71 1024.35 1024.02 1023.53 1023.18 1022.74 1022.14 1021.78 1021.56 1021.42 1021.25 1020.95 1020.76 1020.48 1020.04 1019.53 1019.18 1018.94 1018.86 1018.32 1017.75 1017.44 1016.98 1016.62 1016.26 1015.98 1015.83 1015.59 1015.15 1014.45 1013.61 1013.17 1012.96 1012.73 1012.48 1012.17 1011.81 1011.80 1011.78 1011.64 1011.28
1025.32 1024.97 1024.55 1024.20 1023.93 1023.70 1023.20 1022.73 1022.25 1021.63 1021.11 1021.18 1021.32 1021.36 1021.21 1020.92 1020.46 1019.97 1019.63 1019.37 1019.18 1018.75 1018.10 1017.53 1016.99 1016.53 1016.04 1015.80 1015.84 1015.79 1015.40 1014.66 1014.21 1013.69 1013.31 1013.09 1012.69 1012.23 1011.74 1011.74 1011.60 1011.49 1011.29
1025.06 1024.76 1024.48 1024.17 1023.90 1023.72 1023.35 1022.95 1022.58 1022.10 1021.66 1021.55 1021.79 1021.77 1021.57 1021.24 1020.89 1020.52 1020.14 1019.92 1019.72 1019.15 1018.48 1017.76 1016.94 1016.32 1015.84 1015.30 1015.10 1015.11 1014.84 1014.48 1014.14 1013.96 1013.49 1013.34 1012.91 1012.49 1012.07 1011.68 1011.36 1011.31 1011.19
1024.97 1024.80 1024.61 1024.21 1023.99 1023.78 1023.44 1023.20 1022.94 1022.73 1022.75 1022.70 1022.53 1022.29 1021.89 1021.47 1021.18 1020.89 1020.50 1020.05 1019.69 1019.37 1018.72 1017.83 1017.10 1016.18 1015.52 1015.09 1014.67 1014.32 1014.12 1014.10 1014.18 1014.02 1013.79 1013.63 1013.29 1012.91 1012.33 1011.92 1011.28 1011.04 1010.77
1024.85 1024.74 1024.34 1024.14 1023.96 1023.83 1023.80 1023.75 1023.61 1023.44 1023.41 1023.27 1023.09 1022.86 1022.45 1021.81 1021.33 1020.92 1020.42 1020.02 1019.38 1019.02 1018.32 1017.66 1016.74 1016.19 1015.72 1015.29 1014.80 1014.44 1014.32 1014.42 1014.48 1014.36 1014.21 1013.88 1013.49 1012.98 1012.57 1012.12 1011.55 1011.23 1010.84
1024.73 1024.62 1024.32 1024.29 1024.10 1023.96 1023.90 1023.95 1024.15 1024.13 1023.92 1023.70 1023.50 1023.24 1022.80 1022.41 1021.73 1021.05 1020.65 1020.15 1019.50 1018.96 1018.35 1017.69 1017.13 1016.54 1016.10 1015.76 1015.27 1014.86 1014.77 1014.65 1014.68 1014.59 1014.44 1014.04 1013.52 1013.03 1012.77 1012.40 1012.04 1011.56 1011.14
1024.27 1024.05 1024.20 1024.21 1024.23 1024.08 1024.03 1024.16 1024.14 1024.10 1024.13 1024.03 1023.77 1023.46 1022.97 1022.52 1021.88 1021.36 1021.16 1020.71 1020.07 1019.42 1018.69 1018.04 1017.65 1017.30 1016.89 1016.51 1015.93 1015.38 1015.16 1014.89 1014.91 1014.86 1014.74 1014.26 1013.67 1013.18 1012.77 1012.41 1011.96 1011.67 1011.29
1024.35 1024.19 1024.03 1023.94 1023.99 1023.95 1023.99 1024.17 1023.99 1023.79 1023.73 1023.76 1023.60 1023.57 1022.86 1022.24 1021.68 1021.11 1020.67 1020.27 1019.70 1019.17 1018.97 1018.83 1018.44 1017.94 1017.52 1017.10 1016.63 1016.14 1015.79 1015.56 1015.38 1015.15 1014.84 1014.45 1013.76 1013.28 1012.90 1012.39 1011.98 1011.78 1011.27
1024.25 1024.10 1024.00 1023.65 1023.50 1023.35 1023.40 1023.67 1023.84 1023.58 1023.46 1023.41 1023.01 1022.61 1022.59 1022.30 1021.63 1021.18 1020.84 1020.41 1019.92 1019.49 1019.44 1019.20 1018.95 1018.49 1018.04 1017.59 1017.16 1016.65 1016.39 1016.02 1015.70 1015.33 1014.89 1014.47 1013.93 1013.44 1012.97 1012.49 1012.08 1011.71 1011.38
1023.95 1023.66 1023.90 1023.70 1023.40 1023.08 1022.76 1022.84 1022.94 1023.06 1023.29 1023.16 1022.59 1022.39 1022.09 1021.72 1021.35 1021.05 1020.85 1020.46 1020.34 1019.85 1019.80 1019.57 1019.36 1018.94 1018.46 1018.00 1017.52 1016.99 1016.68 1016.18 1015.81 1015.38 1014.82 1014.44 1013.94 1013.49 1012.98 1012.54 1012.11 1011.71 1011.41
1023.75 1023.62 1023.29 1023.15 1023.00 1022.73 1022.44 1022.52 1022.44 1022.31 1022.43 1022.64 1022.44 1021.98 1021.65 1021.43 1021.15 1020.92 1020.72 1020.78 1020.58 1020.38 1020.05 1019.86 1019.54 1019.17 1018.75 1018.29 1017.82 1017.29 1017.00 1016.52 1015.95 1015.23 1014.64 1014.28 1013.84 1013.41 1012.92 1012.54 1012.10 1011.70 1011.40
1023.65 1023.27 1022.91 1022.89 1022.89 1022.62 1022.34 1022.40 1022.17 1022.04 1021.98 1022.19 1022.09 1021.89 1021.51 1021.35 1021.44 1021.29 1020.77 1020.61 1020.56 1020.40 1020.16 1019.95 1019.67 1019.36 1019.03 1018.66 1018.20 1017.70 1017.22 1016.64 1015.99 1015.35 1014.78 1014.22 1013.84 1013.32 1012.88 1012.49 1012.06 1011.69 1011.53
1023.52 1023.25 1022.68 1022.52 1022.67 1022.23 1022.25 1022.14 1022.16 1021.81 1021.78 1021.83 1021.61 1021.23 1021.21 1021.40 1021.46 1021.18 1020.95 1020.62 1020.46 1020.34 1020.23 1020.03 1019.83 1019.62 1019.31 1018.98 1018.53 1018.05 1017.54 1016.93 1016.21 1015.46 1014.81 1014.28 1013.85 1013.29 1012.88 1012.45 1012.12 1011.92 1011.76
1023.06 1022.85 1022.47 1022.27 1022.19 1022.02 1022.01 1021.79 1021.89 1021.63 1021.34 1021.27 1021.33 1021.00 1020.80 1020.91 1020.89 1020.78 1020.69 1020.57 1020.30 1020.17 1020.15 1020.12 1020.02 1019.87 1019.59 1019.25 1018.81 1018.31 1017.82 1017.19 1016.37 1015.53 1014.76 1014.19 1013.69 1013.30 1012.93 1012.55 1012.39 1012.21 1012.02
1022.85 1022.61 1022.20 1021.90 1021.73 1021.54 1021.72 1021.52 1021.39 1021.34 1021.06 1020.98 1020.72 1020.69 1020.71 1020.85 1020.88 1020.65 1020.59 1020.49 1020.32 1020.19 1020.12 1020.09 1020.13 1020.04 1019.68 1019.35 1018.92 1018.52 1018.09 1017.46 1016.70 1015.80 1014.99 1014.29 1013.71 1013.28 1012.95 1012.79 1012.64 1012.53 1012.37
1022.67 1022.42 1021.94 1021.75 1021.67 1021.63 1021.63 1021.51 1021.29 1021.05 1020.90 1020.76 1020.63 1020.64 1020.62 1020.66 1020.43 1020.43 1020.43 1020.36 1020.20 1020.00 1020.07 1020.21 1020.20 1020.06 1019.89 1019.56 1019.09 1018.62 1018.06 1017.46 1016.69 1015.76 1015.09 1014.35 1013.82 1013.34 1013.10 1013.00 1012.88 1012.72 1012.51
1022.38 1022.09 1021.70 1021.77 1021.78 1021.72 1021.62 1021.47 1021.16 1020.90 1020.66 1020.47 1020.60 1020.50 1020.59 1020.48 1020.67 1020.69 1020.51 1020.24 1020.14 1020.15 1020.14 1020.37 1020.44 1020.24 1020.06 1019.82 1019.35 1018.72 1018.15 1017.27 1016.52 1015.91 1015.08 1014.48 1014.08 1013.74 1013.51 1013.35 1013.13 1013.00 1012.85
1022.31 1021.61 1021.59 1021.57 1021.72 1021.59 1021.67 1021.56 1021.35 1021.17 1021.10 1020.86 1020.90 1020.87 1020.96 1021.18 1020.90 1020.88 1020.78 1020.75 1020.45 1020.11 1020.22 1020.66 1020.74 1020.56 1020.35 1020.14 1019.67 1018.93 1018.21 1017.47 1016.72 1016.05 1015.32 1014.88 1014.49 1014.17 1013.86 1013.69 1013.49 1013.20 1013.03
Wind_Speed
9 6 7 7 8 6 6 7 6 7 7 7 8 7 6 7 7 7 7 8 9 7 8 9 9 7 4 4 4 3 4 3 3 3 1 3 4 5 5 5 5 5 5
6 7 7 8 6 6 6 8 8 8 9 6 9 8 8 9 8 9 9 9 9 9 9 9 8 6 7 6 4 5 4 2 2 2 3 2 3 4 4 5 5 5 4
8 8 8 8 7 7 8 8 8 8 7 8 8 8 8 9 8 7 7 6 8 6 6 7 6 6 6 4 4 4 4 3 2 2 3 2 3 2 4 4 4 5 3
8 8 7 9 6 7 7 7 7 6 6 8 9 11 11 9 9 9 7 6 6 5 5 5 5 5 5 6 5 5 4 4 3 3 3 3 2 4 2 3 6 3 5
5 6 8 7 7 6 7 7 6 6 6 6 7 7 6 7 7 7 7 6 5 5 5 5 3 8 14 9 3 5 4 3 3 3 3 3 3 4 3 3 3 4 6
5 5 6 6 6 6 5 6 6 5 6 5 5 5 6 4 10 10 6 4 5 6 6 7 6 7 9 13 12 12 7 4 4 2 2 2 4 3 3 3 3 4 5
4 4 5 5 6 6 6 6 6 4 4 5 5 5 6 7 13 13 12 3 3 5 5 6 5 5 8 7 11 12 10 11 9 1 4 4 3 3 3 4 3 3 4
4 4 5 4 5 7 7 6 6 3 4 3 4 5 6 7 15 19 16 6 4 3 3 4 5 7 6 7 8 7 7 6 5 3 3 6 5 6 4 3 4 5 4
2 3 5 5 6 7 7 7 6 4 3 2 2 5 6 7 16 17 13 7 5 3 3 4 4 6 9 9 7 8 7 6 7 8 10 7 10 9 4 3 4 3 3
2 5 6 6 7 7 7 8 5 5 5 1 1 5 9 7 12 17 13 5 8 6 7 7 8 8 9 9 4 4 6 6 6 6 6 6 7 6 9 3 3 2 3
5 5 6 7 5 4 5 6 6 8 10 8 6 4 5 6 8 15 15 8 4 7 5 6 9 13 11 12 7 4 6 5 5 4 4 4 5 5 5 4 5 1 2
6 6 5 4 5 4 7 6 6 7 7 7 6 5 4 6 8 11 14 14 10 4 7 7 9 17 13 12 8 8 10 7 1 3 3 4 4 4 6 5 5 4 3
5 3 3 3 3 2 5 7 5 7 6 5 5 5 5 5 6 10 11 12 12 9 7 13 16 14 10 8 13 10 7 4 3 4 3 4 3 4 6 5 5 6 5
6 6 4 2 1 2 2 3 4 4 4 4 4 4 5 5 5 6 7 8 12 11 13 10 10 8 8 7 8 7 4 3 3 2 3 4 5 4 4 4 3 4 4
4 2 5 4 4 3 1 1 2 1 2 0 2 3 3 5 5 7 5 7 9 7 8 4 5 5 6 5 6 6 4 4 4 3 4 5 6 6 5 5 4 6 3
4 4 5 1 5 5 4 1 2 2 3 6 7 4 4 9 12 14 13 11 17 10 5 4 5 5 5 5 7 5 5 5 3 4 7 8 7 6 6 6 5 5 5
3 5 4 4 3 4 1 5 4 4 8 9 11 12 8 12 16 15 14 17 11 8 4 4 4 5 5 5 7 5 4 5 2 3 8 8 7 7 6 5 5 5 4
3 7 2 4 4 4 4 1 4 4 3 3 8 10 11 12 13 14 11 11 5 6 3 4 4 5 7 6 8 6 5 7 8 3 7 7 7 6 6 6 5 5 4
3 3 3 3 4 5 4 4 1 2 2 3 2 3 6 6 10 7 8 0 2 3 4 4 4 5 6 7 8 8 7 8 7 8 7 7 7 6 6 5 6 7 5
5 10 6 4 4 3 4 4 4 3 2 4 2 2 3 5 4 3 4 3 3 3 4 4 4 5 6 7 8 8 8 9 10 9 9 7 7 6 5 6 5 4 2
3 6 10 4 3 2 2 3 3 2 3 2 4 3 1 1 2 2 2 3 3 3 4 4 4 4 5 7 7 8 7 9 9 10 8 7 7 6 5 5 4 3 3
4 5 5 4 2 1 2 4 3 2 3 2 2 3 3 1 2 2 2 3 2 3 3 3 3 4 4 5 7 8 7 9 9 9 8 8 6 5 5 4 3 3 3
4 6 5 1 1 2 2 4 2 3 3 2 1 1 1 2 1 2 2 2 2 3 3 4 4 4 4 4 6 7 7 8 8 9 8 7 6 5 4 2 3 3 3
5 7 2 1 0 3 3 4 3 3 2 2 1 2 3 2 2 3 2 2 2 2 4 4 4 5 5 6 7 8 7 7 7 8 10 7 6 6 3 3 3 3 3
5 5 2 2 3 3 5 4 4 1 1 3 2 3 1 3 3 3 2 2 1 2 4 5 4 6 7 10 12 14 12 13 10 9 6 7 8 8 4 3 3 3 4
6 2 2 2 3 3 4 5 5 5 5 6 5 5 5 5 5 6 4 7 4 1 5 5 6 8 9 8 11 14 14 13 11 11 6 6 6 6 5 6 6 3 4
Wind_Direction
16 11 354 340 356 352 348 334 325 325 328 336 332 331 330 331 339 335 349 349 353 6 26 35 26 27 24 27 21 15 33 35 9 309 290 302 306 313 309 298 297 286 288
13 0 348 349 346 358 347 342 334 342 345 343 356 357 359 360 17 0 348 350 33 32 31 32 21 19 23 13 21 19 29 26 57 308 288 298 269 297 291 297 305 302 282
18 357 359 351 354 354 3 348 6 20 356 9 6 9 5 8 5 345 345 37 44 34 27 29 18 25 16 359 10 21 4 356 337 263 275 265 276 298 318 313 311 303 300
13 358 344 355 7 6 353 1 4 7 3 5 24 31 31 21 11 1 19 24 33 34 27 40 32 32 17 2 9 1 357 357 343 349 314 306 301 303 317 321 336 318 322
4 358 356 359 7 2 1 349 342 349 355 349 21 33 13 20 11 5 360 6 19 10 358 353 5 17 19 357 327 304 320 320 317 322 318 323 309 326 326 296 314 314 309
358 360 357 352 351 340 336 339 346 347 353 2 5 18 17 352 340 354 11 335 354 19 4 359 9 27 359 354 340 331 283 234 255 235 266 298 280 278 295 309 305 348 327
350 359 350 342 346 322 330 329 329 314 327 341 351 15 9 1 355 349 348 311 348 40 18 5 354 356 0 346 337 330 327 335 274 181 289 275 283 270 305 308 309 300 270
346 357 335 327 316 311 316 323 329 289 304 324 5 29 20 359 7 11 3 2 63 61 8 346 356 343 338 357 344 352 8 8 12 343 237 274 271 291 269 234 270 288 296
350 333 314 323 311 302 310 309 295 295 289 343 40 35 27 8 11 10 14 15 26 338 296 311 318 334 315 351 359 346 342 335 330 355 355 335 337 325 9 5 333 348 318
290 293 294 289 293 313 338 349 317 314 284 246 83 40 35 24 8 10 16 6 3 342 311 305 290 298 306 318 336 331 325 301 331 334 355 344 341 341 352 4 299 324 299
289 288 303 316 328 7 5 10 359 6 23 35 62 41 31 23 3 10 9 9 347 334 320 328 326 312 304 302 293 269 244 279 335 328 13 339 336 342 333 0 330 344 282
282 287 300 29 23 22 30 9 14 20 28 22 35 12 0 2 11 2 357 356 350 345 314 316 317 317 321 326 323 290 294 349 63 345 14 339 324 332 335 332 327 354 326
282 279 85 53 47 99 50 25 23 24 29 9 16 6 344 340 345 343 333 334 328 337 322 324 326 326 356 353 350 344 359 41 30 18 353 328 324 325 333 332 331 350 359
274 216 183 163 245 13 72 78 51 30 27 25 12 352 333 338 333 335 338 337 336 341 337 324 313 340 4 358 358 352 23 69 60 11 354 344 326 342 333 329 322 320 330
321 339 193 202 218 226 107 114 125 202 158 14 307 308 327 330 295 298 302 325 323 309 311 338 358 352 353 347 345 342 18 29 29 17 4 336 341 335 332 326 323 329 330
12 338 321 321 207 233 209 229 291 162 275 283 280 246 306 268 295 319 328 330 331 343 10 351 351 344 343 344 350 339 3 360 28 28 7 349 330 329 333 316 324 332 321
311 307 341 337 353 325 185 197 221 283 262 276 278 282 267 260 296 308 329 338 334 18 11 348 353 351 338 350 354 348 0 355 2 21 4 345 334 330 327 327 325 320 326
351 303 294 302 300 309 318 18 198 195 222 276 269 244 279 288 289 297 314 335 359 3 359 359 357 355 1 358 356 349 359 352 349 335 353 341 334 327 326 326 323 316 317
307 292 290 303 307 294 295 321 7 288 129 163 292 337 273 298 351 326 317 78 11 348 350 8 7 1 7 358 356 350 0 343 338 331 328 332 331 320 321 322 316 316 311
276 275 275 295 321 318 18 349 331 333 31 164 168 258 312 23 4 331 15 22 17 16 15 22 14 8 6 357 352 349 348 341 337 336 329 330 332 319 327 323 317 331 353
267 255 260 286 263 111 348 332 322 36 355 179 206 230 178 51 292 37 5 13 44 15 37 30 24 15 1 357 350 347 345 336 331 333 329 338 328 328 332 320 335 5 358
304 301 263 254 192 270 256 278 280 280 310 358 213 254 252 164 121 65 24 18 42 49 80 61 34 27 3 358 349 343 341 334 324 325 324 332 334 337 332 337 8 11 15
303 300 293 92 161 325 346 271 308 251 281 326 168 102 77 55 43 67 51 55 38 58 95 69 50 28 360 357 354 344 336 326 312 310 326 327 342 341 336 3 7 32 30
286 291 300 17 238 317 322 308 329 301 337 357 357 70 85 69 177 128 100 79 60 54 101 91 60 43 14 7 355 349 336 326 311 313 324 333 341 347 3 18 17 3 14
285 270 356 341 61 33 360 336 324 360 15 351 80 64 16 326 53 75 264 82 104 52 99 101 65 36 27 11 357 349 338 333 332 326 331 349 351 5 21 23 16 19 46
293 79 17 10 83 33 345 329 343 15 12 9 47 16 44 31 30 36 17 10 353 63 102 100 72 47 29 11 352 343 348 346 347 339 347 2 3 10 2 28 37 12 7